Regional Weather Roundup
Issued by NWS Sioux Falls, SD

Home | Current Version | Previous Version | Graphics & Text | Print | Product List | Glossary On
Versions: 1 2 3 4 5 6 7 8 9 10 11 12 13 14 15 16 17 18 19 20 21 22 23 24 25 26 27 28 29 30 31 32 33 34 35 36 37 38 39 40 41 42 43 44 45 46 47 48 49 50
000
ASUS43 KFSD 081710
RWRFSD

WEATHER ROUNDUP FOR SE SOUTH DAKOTA/SW MINNESOTA/NW IOWA
NATIONAL WEATHER SERVICE SIOUX FALLS SD
1100 AM CST THU DEC 08 2016

NOTE: "FAIR" INDICATES FEW OR NO CLOUDS BELOW 12,000 FEET WITH NO
SIGNIFICANT WEATHER AND OR OBSTRUCTIONS TO VISIBILITY.


SDZ038>040-050-052>070-081800-
SOUTHEAST SOUTH DAKOTA

CITY           SKY/WX    TMP DP  RH WIND       PRES   REMARKS
BROOKINGS      FLURRIES  12   6  77 NW21      30.51R WCI  -7
CHAMBERLAIN    PTSUNNY   11   3  69 W20G25    30.65S WCI  -7
HURON          PTSUNNY   13   4  67 NW21G26   30.64R WCI  -5
MADISON        FAIR      10   7  85 NW25      30.54R WCI -10
MITCHELL       SUNNY     14   3  61 NW21      30.65S WCI  -4
SIOUX FALLS    MOSUNNY   14   6  70 NW23G30   30.56R WCI  -5
WINNER         FAIR      10  -2  58 NW17      30.66R WCI  -8
YANKTON        SUNNY     14   3  62 NW20G28   30.63S WCI  -3
$$

MNZ071-072-080-081-089-090-097-098-081800-
SOUTHWEST MINNESOTA

CITY           SKY/WX    TMP DP  RH WIND       PRES   REMARKS
FAIRMONT       FLURRIES  17  10  74 NW25G35   30.45R WCI  -1
JACKSON        CLOUDY    18  10  73 NW23G29   30.45S WCI   0
LUVERNE        SUNNY     14   5  67 NW18G28   30.54S WCI  -3
MARSHALL       CLOUDY    15   8  73 NW28      30.49R WCI  -5
MONTEVIDEO     CLOUDY    16   9  73 N16G25    30.51S WCI   0
PIPESTONE      MOSUNNY   12   7  79 NW17G23   30.49S WCI  -5
REDWOOD FALLS  FLURRIES  16   8  71 NW20G28   30.48R WCI  -1
TRACY          CLOUDY    17  11  78 NW21G28   30.50R WCI   0
WINDOM         FLURRIES  18  10  73 NW21G29   30.46R WCI   1
WORTHINGTON    FLURRIES  14   8  77 NW24      30.48R WCI  -5
$$

IAZ001>003-012>014-020>022-031-032-NEZ013-014-SDZ071-081800-
NORTHWEST IOWA

CITY           SKY/WX    TMP DP  RH WIND       PRES   REMARKS
CHEROKEE       SUNNY     15   6  67 NW17G26   30.55S WCI  -1
DENISON        PTSUNNY   14   7  73 NW16G25   30.55S WCI  -2
ESTHERVILLE    CLOUDY    18  10  71 NW23G31   30.46R WCI   0
LE MARS        MOSUNNY   16   5  62 NW17G26   30.59F WCI   0
ORANGE CITY    MOSUNNY   14   7  73 NW23G29   30.54S WCI  -5
SHELDON        CLOUDY    14   9  79 NW24      30.51S WCI  -5
SIOUX CITY     SUNNY     17   5  59 NW24G30   30.60R WCI  -1
SPENCER        CLOUDY    15   7  70 MISG      30.50R
STORM LAKE     FLURRIES  14   7  73 NW21G28   30.51R WCI  -4
$$

ABBREVIATIONS USED IN REMARKS
   TC - TEMPERATURE IN CELSIUS
  WCI - WIND CHILL INDEX
   HX - HEAT INDEX
  VSB - VISIBILITY




USA.gov is the U.S. government's official web portal to all federal, state and local government web resources and services.